To NAV CANADA Home Page Login to a new session Search on AWWS site Feedback and Comments Disclaimer Vers la page française équivalente Tips FAQ What's new on the site To the Forecasts and Observations / NOTAM section To "File a Flight Plan" website Publications and other links Update of the User's profile FIC Telephone Numbers My Weather Data Folder Route Weather Data Regional Weather Data Local Weather Data To the Forecasts and Observations / NOTAM section
Request Generated 12/04/2016 at 22:21:44 UTC . Weather information available at that time is displayed.

METAR/TAF

KANGIQSUJUAQ/KANGIQSUJUAQ (WAKEHAM BAY)/QC    

METAR CYKG 042200Z 28013KT 10SM BKN015 M08/M12 A2983 RMK SC6 LAST
STFD OBS/NEXT 051300 UTC SLP117=
METAR CYKG 042100Z 28013KT 10SM -SN BKN025 M08/M11 A2983 RMK SC7
SLP118=
METAR CYKG 042000Z 29014KT 10SM BKN020 M08/M11 A2983 RMK SC5 SLP118=

CYKG - No TAF is issued for this station

Your time UTC time
Weather data provided by Environment Canada and NAV CANADA